[[{"header":{"parameterUnit":"m.s-1","parameterCategory":2,"la1":30.2991,"la2":30.254,"lo1":-89.0895,"lo2":-89.0444,"dy":0.0017,"dx":0.0017,"nx":28,"ny":28,"refTime":"2025-08-01T21:00:00:Z","depth":"0","parameterNumber":2,"parameterNumberName":"U-component_of_CURRENTS"},"data":[0,0,0,0,0,0,0,0,0,0,0,0,0,0,0,0,0,0,0,0,0,0,0,0,0,0,0,0,0,0,0,0,0,0,0,0,0,0,0,0,0,0,0,0,0,0,0,0,0,0,0,0,0,0,0,0,0,0,0.3543,0.3543,0,0.3568,0.3568,0.3568,0.3582,0.3583,0.3583,0.3583,0.3641,0.3642,0.3644,0,0,0,0,0,0,0,0,0,0,0,0,0,0.3514,0.3514,0.3543,0.3543,0.3544,0.3568,0.3568,0.3568,0.3582,0.3583,0.3583,0.3583,0.3641,0.3642,0.3644,0,0,0,0,0,0,0,0,0,0,0,0,0,0.3529,0.3514,0.3542,0.3556,0.3557,0.3568,0.3568,0.3568,0.3582,0.3583,0.3583,0.3584,0.364,0.3642,0.3644,0.3647,0,0,0.365,0.365,0,0,0,0,0,0,0,0,0.3528,0.353,0.3553,0.3555,0.3557,0.3575,0.3579,0.3597,0.3582,0.357,0.3583,0.3584,0.3623,0.3627,0.3626,0.3649,0.3652,0.365,0.3651,0.3652,0.3652,0,0,0,0,0,0,0,0.3527,0.3529,0.355,0.3554,0.3556,0.3563,0.3565,0.3582,0.3592,0.3571,0.3573,0.358,0.3624,0.3624,0.3628,0.3653,0.365,0.3651,0.3653,0.3653,0.3728,0.3729,0,0,0,0,0,0,0.3528,0.3528,0.3549,0.3551,0.3546,0.3563,0.3566,0.3566,0.3592,0.3596,0.3579,0.358,0.3621,0.3625,0.363,0.3674,0.3652,0.3654,0.3655,0.3727,0.3728,0.3729,0,0,0,0,0,0,0.3527,0.353,0.3548,0.3542,0.3546,0.3564,0.3564,0.3567,0.3573,0.3598,0.3603,0.3584,0.3621,0.3627,0.365,0.3675,0.3654,0.3656,0.3726,0.3728,0.3729,0.3737,0,0,0,0,0,0,0.3526,0.3529,0.3526,0.3542,0.3546,0.355,0.3564,0.3567,0.3577,0.3579,0.3604,0.3609,0.3622,0.3647,0.3652,0.3677,0.3658,0.3725,0.3727,0.3728,0.3736,0.3739,0.3741,0,0,0,0,0,0.3525,0.3519,0.3525,0.3528,0.3542,0.355,0.3552,0.3565,0.3577,0.3573,0.3597,0.3608,0.3661,0.3649,0.3654,0.3681,0.3724,0.3726,0.3728,0.3735,0.3738,0.3741,0,0,0,0,0,0,0.35,0.352,0.3528,0.3526,0.3537,0.3554,0.3551,0.3567,0.3581,0.3584,0.3611,0.3618,0.3655,0.3661,0.3647,0.3708,0.3698,0.3701,0.3701,0.3705,0.3707,0.3684,0.3659,0,0,0,0,0,0.3494,0.3497,0.3516,0.3513,0.3516,0.3535,0.354,0.3551,0.3569,0.3576,0.3595,0.3624,0.3666,0.3678,0.3705,0.3726,0.3764,0.375,0.3752,0.3754,0.374,0.3827,0.3837,0.3735,0.3735,0.3735,0,0,0.3482,0.3496,0.3495,0.3509,0.3515,0.3518,0.3538,0.3543,0.3553,0.3581,0.3594,0.3633,0.3675,0.3709,0.3725,0.3716,0.3808,0.3757,0.3758,0.3743,0.383,0.384,0.3849,0.3737,0.3736,0.3736,0,0,0.3459,0.3471,0.3463,0.3473,0.3488,0.3503,0.3506,0.3524,0.3537,0.3555,0.3597,0.3643,0.3676,0.3721,0.3749,0.3779,0.3824,0.3795,0.3784,0.3869,0.3878,0.3886,0.3966,0.3981,0.379,0.379,0.379,0,0.3441,0.344,0.3461,0.3459,0.3466,0.3497,0.3491,0.351,0.3535,0.3557,0.3555,0.3651,0.3683,0.376,0.3769,0.3786,0.3838,0.377,0.3873,0.3882,0.389,0.397,0.3987,0.3791,0.3791,0.3791,0.3791,0,0.3415,0.3416,0.3411,0.3422,0.3432,0.3432,0.3464,0.348,0.3504,0.3534,0.3601,0.365,0.371,0.3739,0.3758,0.3844,0.3866,0.3874,0.3864,0.3901,0.3983,0.4,0.3792,0.3791,0.3791,0.3791,0,0,0.3365,0.3387,0.3384,0.3385,0.3414,0.3416,0.3442,0.3478,0.3506,0.3545,0.3589,0.367,0.371,0.3744,0.3796,0.3856,0.3969,0.3881,0.3885,0.3957,0.4165,0.4125,0.414,0.4003,0.4006,0.4008,0.4205,0,0.3333,0.3323,0.3347,0.334,0.3337,0.338,0.3403,0.3447,0.349,0.3538,0.3621,0.3682,0.3713,0.3752,0.3823,0.3936,0.4012,0.3915,0.4119,0.4124,0.4083,0.4157,0.4001,0.4158,0.4222,0.4225,0.4227,0,0.3294,0.3297,0.3281,0.3308,0.331,0.3313,0.3362,0.3388,0.3478,0.3519,0.3602,0.367,0.3786,0.3791,0.4005,0.3946,0.405,0.4127,0.4137,0.4101,0.4115,0.4128,0.4187,0.4001,0.4254,0.4252,0.425,0,0.3246,0.3251,0.3237,0.3242,0.3277,0.3282,0.3305,0.3379,0.3415,0.3512,0.3557,0.3698,0.3777,0.3924,0.409,0.4062,0.4314,0.4304,0.4371,0.437,0.4273,0.4258,0.4167,0.4452,0.4452,0.4451,0.4451,0,0.3205,0.3193,0.3209,0.3201,0.3195,0.3235,0.3251,0.33,0.3381,0.3434,0.3546,0.3618,0.3812,0.3975,0.4113,0.4304,0.4354,0.4382,0.4422,0.4272,0.4256,0.4117,0.4025,0.4459,0.4457,0.4456,0.4454,0,0.3151,0.3163,0.3146,0.3164,0.3169,0.3162,0.3205,0.3227,0.3314,0.3387,0.3423,0.3594,0.3797,0.4,0.4251,0.4334,0.4386,0.4571,0.4377,0.4388,0.4226,0.4142,0.4044,0.3943,0.4664,0.4665,0.4665,0,0.3123,0.3107,0.3105,0.3091,0.3091,0.3094,0.3103,0.3182,0.3217,0.3371,0.3406,0.361,0.3762,0.4112,0.4299,0.4552,0.4394,0.4514,0.4415,0.4197,0.4135,0.3991,0.3903,0.4312,0.431,0.4307,0.4306,0,0.3071,0.3066,0.3055,0.3029,0.3018,0.3008,0.303,0.3056,0.3162,0.3252,0.3387,0.3521,0.3832,0.3994,0.429,0.4426,0.4239,0.4474,0.4303,0.3888,0.3672,0.3601,0.4202,0.4286,0.4288,0.4289,0.429,0.4291,0.3042,0.3016,0.3003,0.2975,0.2945,0.2922,0.291,0.296,0.3029,0.313,0.3302,0.3419,0.3645,0.4035,0.4167,0.4153,0.415,0.4028,0.3966,0.3858,0.3661,0.4209,0.4292,0.4294,0.4296,0.4297,0.4299,0,0.3041,0.3004,0.2956,0.2911,0.2849,0.2863,0.2862,0.2846,0.2902,0.299,0.3118,0.3231,0.3402,0.3577,0.3702,0.3628,0.3561,0.3508,0.3237,0.3197,0.3741,0.3618,0.3488,0.3488,0.3489,0.3489,0.3489,0.3489,0.3055,0.3004,0.2968,0.2848,0.2798,0.2713,0.2706,0.2688,0.2709,0.27,0.2692,0.2782,0.2966,0.3101,0.3067,0.3068,0.2838,0.2753,0.2744,0.3062,0.3103,0.3143,0.3002,0.2746,0.2745,0.21,0.2094,0.209]},{"header":{"parameterUnit":"m.s-1","parameterCategory":2,"la1":30.2991,"la2":30.254,"lo1":-89.0895,"lo2":-89.0444,"dy":0.0017,"dx":0.0017,"nx":28,"ny":28,"refTime":"2025-08-01T21:00:00:Z","depth":"0","parameterNumber":3,"parameterNumberName":"V-component_of_CURRENTS"},"data":[0,0,0,0,0,0,0,0,0,0,0,0,0,0,0,0,0,0,0,0,0,0,0,0,0,0,0,0,0,0,0,0,0,0,0,0,0,0,0,0,0,0,0,0,0,0,0,0,0,0,0,0,0,0,0,0,0,0,0.0019,0.0019,0,0.0041,0.0041,0.0041,0.0022,0.0022,0.0021,0.002,-0.0035,-0.0036,-0.0037,0,0,0,0,0,0,0,0,0,0,0,0,0,-0.0059,-0.0057,0.0019,0.0019,0.0019,0.0041,0.0041,0.0041,0.0023,0.0022,0.0021,0.002,-0.0035,-0.0036,-0.0037,0,0,0,0,0,0,0,0,0,0,0,0,0,-0.003,-0.0057,0.0018,0.0012,0.0012,0.0041,0.0041,0.0041,0.0023,0.0022,0.002,0.0019,-0.0035,-0.0036,-0.0037,-0.002,0,0,-0.004,-0.0041,0,0,0,0,0,0,0,0,-0.0031,-0.0027,0.0013,0.0013,0.0012,0.0028,-0.0007,0.0017,0.0023,0.0019,0.002,0.0019,-0.0021,-0.0023,-0.0015,-0.0023,-0.0025,-0.004,-0.0041,-0.0042,-0.0042,0,0,0,0,0,0,0,-0.0033,-0.0028,0.0027,0.0013,0.0013,0.0002,0.0005,-0.0002,0.0004,0.0019,0.0018,0.002,-0.0022,-0.0014,-0.0017,-0.0026,-0.004,-0.0041,-0.0042,-0.0042,-0.0037,-0.0036,0,0,0,0,0,0,-0.0033,-0.0029,0.0027,0.0028,-0.0013,0.0004,0.0008,0.0024,0.0006,0.0002,0.0021,0.002,-0.0011,-0.0015,-0.0019,-0.0002,-0.0042,-0.0043,-0.0043,-0.0038,-0.0037,-0.0036,0,0,0,0,0,0,-0.0035,-0.0028,0.0026,-0.0002,0.0004,0.0007,0.0025,0.0025,0.0027,0.0008,0.0003,0.0022,-0.0012,-0.0017,-0.0021,-0.0004,-0.0043,-0.0044,-0.0039,-0.0037,-0.0036,0.0033,0,0,0,0,0,0,-0.0037,-0.0028,-0.0017,-0.0001,0.0006,0.0048,0.0026,0.0026,0.003,0.0028,0.0008,0.0002,-0.0014,-0.0019,-0.0022,-0.0007,-0.0045,-0.004,-0.0038,-0.0037,0.003,0.0036,0.0042,0,0,0,0,0,-0.0039,-0.0018,-0.0017,-0.001,0.0022,0.0049,0.0052,0.0049,0.0032,0.0043,0.0027,0.0002,-0.0012,-0.0019,-0.0023,-0.0007,-0.004,-0.0039,-0.0037,0.0027,0.0035,0.0042,0,0,0,0,0,0,-0.0048,-0.0017,-0.0016,0.0013,0.0032,0.0046,0.0056,0.0051,0.005,0.004,0.0016,0.001,0.0011,-0.0006,-0.0014,-0.0002,-0.0031,-0.003,0.0018,0.0026,0.0032,0.0044,-0.0046,0,0,0,0,0,-0.0043,-0.0017,0.0005,0.0029,0.0039,0.0047,0.0055,0.0055,0.0056,0.0054,0.0041,0.0025,0.0019,0.0015,0.0005,0.0015,-0.0005,0.0021,0.0028,0.0033,0.0041,0.0023,0.0028,-0.003,-0.003,-0.003,0,0,-0.004,-0.002,-0.0006,0.0029,0.0041,0.0071,0.0049,0.0067,0.0088,0.0048,0.0065,0.0045,0.0026,0.0038,0.0036,0.0023,0.0041,0.0035,0.004,0.0045,0.0026,0.0031,0.0036,-0.0029,-0.0029,-0.0029,0,0,-0.0016,-0.0002,0.0029,0.005,0.0074,0.0084,0.009,0.0106,0.0108,0.0124,0.0099,0.0094,0.0084,0.0082,0.0076,0.0111,0.0072,0.0102,0.0147,0.013,0.0135,0.0139,0.0128,0.013,0.0107,0.0108,0.0108,0,-0.0015,0.0033,0.0041,0.0076,0.0099,0.0093,0.0131,0.0139,0.015,0.0159,0.0135,0.0131,0.011,0.0129,0.014,0.0126,0.0108,0.0121,0.0139,0.0142,0.0145,0.0133,0.0134,0.0111,0.0111,0.011,0.011,0,0.0036,0.0073,0.0093,0.014,0.0163,0.0195,0.021,0.0225,0.0219,0.0224,0.0233,0.0209,0.0205,0.0199,0.018,0.0195,0.0173,0.0147,0.0121,0.0155,0.014,0.014,0.0116,0.0115,0.0114,0.0113,0,0,0.0055,0.0117,0.0128,0.0163,0.0202,0.023,0.0264,0.0301,0.033,0.0316,0.0348,0.0328,0.0302,0.0294,0.0266,0.0255,0.0258,0.0213,0.021,0.0205,0.0223,0.0218,0.0217,0.0229,0.0229,0.023,0.0208,0,0.0098,0.0176,0.0194,0.0269,0.0315,0.0324,0.0363,0.0387,0.0396,0.0424,0.0389,0.04,0.0342,0.0341,0.0319,0.0281,0.0261,0.0267,0.0188,0.0186,0.0179,0.0218,0.0243,0.0227,0.0208,0.0208,0.0208,0,0.0156,0.0202,0.028,0.0351,0.0371,0.0406,0.0471,0.0503,0.0529,0.0531,0.0523,0.0495,0.0482,0.042,0.0359,0.0363,0.0297,0.0256,0.0253,0.0224,0.0182,0.0187,0.0227,0.009,0.0208,0.0208,0.0208,0,0.019,0.0269,0.0333,0.0359,0.043,0.0461,0.0493,0.0535,0.0577,0.0594,0.0623,0.0585,0.058,0.0494,0.0405,0.0378,0.0339,0.0288,0.0218,0.0217,0.0212,0.021,0.0114,0.0232,0.0232,0.0232,0.0232,0,0.0247,0.0304,0.0352,0.0392,0.047,0.0497,0.0576,0.0603,0.0652,0.0714,0.0672,0.071,0.0596,0.0558,0.0448,0.0353,0.0365,0.0239,0.0215,0.0238,0.0238,0.0096,0.0019,0.0232,0.0232,0.0232,0.0232,0,0.0295,0.0324,0.0402,0.0468,0.0491,0.0545,0.0628,0.0689,0.0721,0.0801,0.0808,0.081,0.0769,0.0661,0.0545,0.0424,0.0262,0.0276,0.0317,0.0298,0.009,0.0017,-0.0073,-0.0102,0.0193,0.0192,0.0192,0,0.0335,0.0379,0.0452,0.0497,0.0529,0.0604,0.0666,0.0716,0.0782,0.0867,0.0914,0.0908,0.094,0.0786,0.0582,0.0411,0.0279,0.0283,0.0227,0.0095,-0.0004,-0.0042,-0.0062,0.0249,0.025,0.025,0.025,0,0.0414,0.0429,0.0485,0.0565,0.0629,0.0715,0.0798,0.0862,0.0932,0.1016,0.1117,0.1155,0.1019,0.0892,0.0652,0.0498,0.0213,0.0281,0.0133,0.003,-0.0005,-0.0049,0.0245,0.0253,0.0252,0.0252,0.0252,0.0252,0.0471,0.0517,0.0575,0.0653,0.0725,0.0828,0.0909,0.1013,0.1143,0.1295,0.1286,0.1391,0.1155,0.0853,0.0631,0.0216,0.0219,0.0081,0.0004,-0.0021,-0.0052,0.0252,0.0235,0.0235,0.0235,0.0234,0.0234,0,0.0556,0.0598,0.0668,0.0762,0.0846,0.0872,0.1007,0.1104,0.1275,0.1428,0.1541,0.1489,0.1201,0.084,0.0292,-0.0001,-0.0093,-0.0171,-0.0232,-0.0239,0.0021,0.0018,-0.0033,-0.0033,-0.0033,-0.0032,-0.0032,-0.0032,0.0613,0.0686,0.0712,0.0855,0.092,0.1043,0.1126,0.1277,0.1408,0.1604,0.1685,0.1728,0.1437,0.0493,-0.0146,-0.029,-0.0474,-0.0509,-0.0599,-0.046,-0.0443,-0.0427,-0.0449,-0.0596,-0.0597,-0.0795,-0.0798,-0.08]}],[{"header":{"parameterUnit":"m.s-1","parameterCategory":2,"la1":30.2991,"la2":30.254,"lo1":-89.0895,"lo2":-89.0444,"dy":0.0017,"dx":0.0017,"nx":28,"ny":28,"refTime":"2025-08-01T21:00:00:Z","depth":"2","parameterNumber":2,"parameterNumberName":"U-component_of_CURRENTS"},"data":[0,0,0,0,0,0,0,0,0,0,0,0,0,0,0,0,0,0,0,0,0,0,0,0,0,0,0,0,0,0,0,0,0,0,0,0,0,0,0,0,0,0,0,0,0,0,0,0,0,0,0,0,0,0,0,0,0,0,0.1571,0.1571,0,0.1629,0.163,0.163,0.1646,0.1646,0.1645,0.1645,0.1711,0.1713,0.1716,0,0,0,0,0,0,0,0,0,0,0,0,0,0.1475,0.1477,0.1571,0.1571,0.1572,0.1629,0.163,0.1631,0.1646,0.1646,0.1645,0.1645,0.1711,0.1713,0.1716,0,0,0,0,0,0,0,0,0,0,0,0,0,0.1524,0.1477,0.1571,0.1586,0.1588,0.1629,0.163,0.1631,0.1646,0.1646,0.1645,0.1644,0.171,0.1713,0.1716,0.1748,0,0,0.1726,0.1727,0,0,0,0,0,0,0,0,0.1521,0.1527,0.1583,0.1585,0.1587,0.1629,0.162,0.167,0.1646,0.1625,0.1645,0.1644,0.1685,0.169,0.1703,0.1752,0.1754,0.1726,0.1728,0.173,0.1731,0,0,0,0,0,0,0,0.1518,0.1525,0.1595,0.1584,0.1586,0.1591,0.1597,0.163,0.1658,0.1627,0.1628,0.1633,0.1686,0.17,0.1705,0.1755,0.1726,0.1729,0.1731,0.1732,0.1941,0.1945,0,0,0,0,0,0,0.151,0.1522,0.1593,0.1596,0.1551,0.1593,0.16,0.1617,0.1658,0.1663,0.1634,0.1634,0.1695,0.1701,0.1707,0.1834,0.173,0.1733,0.1735,0.1938,0.1942,0.1946,0,0,0,0,0,0,0.1508,0.1516,0.159,0.1559,0.1568,0.1595,0.1614,0.1618,0.1647,0.1663,0.1668,0.1659,0.1694,0.1703,0.178,0.1833,0.1734,0.1737,0.1934,0.1939,0.1944,0.2033,0,0,0,0,0,0,0.1505,0.1515,0.1532,0.1559,0.157,0.1627,0.1615,0.162,0.165,0.1651,0.1687,0.1691,0.1695,0.1775,0.1783,0.1836,0.174,0.1929,0.1936,0.1942,0.2026,0.2041,0.2054,0,0,0,0,0,0.1502,0.1522,0.1533,0.1541,0.159,0.1628,0.1635,0.1651,0.1652,0.1673,0.1718,0.1691,0.1823,0.1781,0.1789,0.1844,0.1926,0.1934,0.1942,0.2019,0.2038,0.2054,0,0,0,0,0,0,0.1498,0.1526,0.1538,0.157,0.1603,0.163,0.1649,0.1664,0.1715,0.1723,0.1737,0.1746,0.1836,0.1835,0.1788,0.1929,0.187,0.1881,0.1927,0.1944,0.1958,0.1939,0.1742,0,0,0,0,0,0.1503,0.1523,0.1557,0.1586,0.1601,0.1631,0.165,0.1668,0.171,0.173,0.1756,0.1804,0.1875,0.1903,0.195,0.2023,0.2047,0.2066,0.2081,0.2092,0.2087,0.2201,0.2224,0.1973,0.1973,0.1973,0,0,0.1509,0.1529,0.1541,0.1585,0.1609,0.1649,0.1642,0.1681,0.1728,0.1732,0.1804,0.1853,0.1909,0.2,0.2038,0.2004,0.2182,0.2103,0.2112,0.21,0.2212,0.2236,0.2258,0.1978,0.1977,0.1976,0,0,0.1527,0.1551,0.1572,0.1603,0.1645,0.167,0.1687,0.1729,0.1762,0.1842,0.1875,0.196,0.2033,0.2098,0.214,0.2262,0.2257,0.2276,0.2328,0.244,0.2461,0.248,0.2555,0.258,0.2279,0.2279,0.2279,0,0.1537,0.157,0.1587,0.162,0.1651,0.1683,0.1726,0.1773,0.1839,0.1886,0.1874,0.2046,0.2084,0.223,0.2275,0.2292,0.2341,0.2254,0.2457,0.2476,0.2494,0.2566,0.2592,0.2285,0.2284,0.2283,0.2283,0,0.1571,0.1603,0.162,0.1674,0.1713,0.1754,0.1815,0.1868,0.191,0.1961,0.2096,0.2168,0.2265,0.2308,0.2328,0.2485,0.2475,0.2464,0.2406,0.2524,0.2593,0.2619,0.2292,0.229,0.2289,0.2287,0,0,0.1594,0.1632,0.1643,0.1672,0.1745,0.1782,0.1871,0.1964,0.2034,0.2114,0.2217,0.2356,0.2386,0.2437,0.2486,0.2582,0.2755,0.2574,0.2578,0.2634,0.2992,0.2763,0.2768,0.2785,0.279,0.2794,0.2994,0,0.1624,0.1666,0.1693,0.1766,0.1802,0.1861,0.1941,0.2036,0.2114,0.2219,0.2328,0.2442,0.2441,0.2504,0.2605,0.2725,0.2825,0.27,0.2881,0.2885,0.2656,0.2791,0.2519,0.2655,0.3019,0.3023,0.3026,0,0.1672,0.1688,0.174,0.181,0.1834,0.1892,0.2021,0.2096,0.2251,0.2313,0.2438,0.2511,0.2685,0.2652,0.2905,0.2829,0.2914,0.2989,0.2999,0.2762,0.2703,0.2596,0.2687,0.3068,0.3064,0.3061,0.3058,0,0.169,0.174,0.1774,0.1799,0.1881,0.1936,0.1996,0.2135,0.2216,0.2381,0.2457,0.2642,0.275,0.29,0.3035,0.2998,0.3287,0.3255,0.3131,0.3116,0.2903,0.2858,0.3431,0.343,0.343,0.3429,0.3429,0,0.1727,0.177,0.1781,0.1811,0.1889,0.1941,0.2056,0.2143,0.2275,0.2394,0.2504,0.263,0.282,0.2989,0.3095,0.3181,0.3344,0.3157,0.3161,0.2923,0.288,0.3237,0.3212,0.3437,0.3435,0.3434,0.3432,0,0.1783,0.1774,0.1831,0.1881,0.1907,0.1973,0.2083,0.2162,0.2272,0.243,0.2489,0.2678,0.288,0.3038,0.3291,0.3231,0.3357,0.3346,0.3021,0.2978,0.3097,0.3075,0.3229,0.3223,0.3218,0.3214,0.321,0,0.1844,0.1857,0.1887,0.1917,0.195,0.2029,0.2092,0.218,0.2256,0.2464,0.2543,0.2753,0.2885,0.3105,0.3056,0.3148,0.3327,0.2921,0.2765,0.3092,0.3083,0.3069,0.3054,0.2558,0.255,0.2543,0.2537,0,0.1972,0.1952,0.1975,0.1996,0.2046,0.2088,0.2168,0.2207,0.2322,0.2433,0.2599,0.2711,0.2817,0.2741,0.2754,0.2771,0.2863,0.2765,0.3285,0.2591,0.2459,0.2448,0.2458,0.2473,0.248,0.2484,0.2488,0.249,0.2094,0.21,0.2083,0.2103,0.2138,0.2134,0.2148,0.2197,0.2273,0.2343,0.252,0.2555,0.2486,0.2327,0.2313,0.2267,0.2426,0.2349,0.2374,0.2406,0.2232,0.2091,0.2006,0.2009,0.2012,0.2015,0.2017,0,0.2217,0.218,0.2199,0.2174,0.2172,0.2187,0.2196,0.214,0.2169,0.2204,0.2281,0.2026,0.1925,0.1972,0.1738,0.1653,0.1675,0.1668,0.1709,0.1768,0.1822,0.1623,0.1234,0.1232,0.1231,0.123,0,0,0.2272,0.2267,0.2209,0.22,0.2195,0.2137,0.2118,0.2016,0.1973,0.1866,0.1812,0.1815,0.1846,0.1492,0.1414,0.1336,0.1571,0.1288,0.1901,0.2008,0.2062,0.2174,0.1925,0,0,0,0,0]},{"header":{"parameterUnit":"m.s-1","parameterCategory":2,"la1":30.2991,"la2":30.254,"lo1":-89.0895,"lo2":-89.0444,"dy":0.0017,"dx":0.0017,"nx":28,"ny":28,"refTime":"2025-08-01T21:00:00:Z","depth":"2","parameterNumber":3,"parameterNumberName":"V-component_of_CURRENTS"},"data":[0,0,0,0,0,0,0,0,0,0,0,0,0,0,0,0,0,0,0,0,0,0,0,0,0,0,0,0,0,0,0,0,0,0,0,0,0,0,0,0,0,0,0,0,0,0,0,0,0,0,0,0,0,0,0,0,0,0,0.06,0.0599,0,0.0529,0.0528,0.0527,0.0419,0.0417,0.0415,0.0414,0.0197,0.0194,0.019,0,0,0,0,0,0,0,0,0,0,0,0,0,0.0594,0.0595,0.06,0.0599,0.0598,0.0529,0.0528,0.0527,0.0419,0.0417,0.0415,0.0413,0.0199,0.0194,0.0189,0,0,0,0,0,0,0,0,0,0,0,0,0,0.0567,0.0596,0.06,0.0537,0.053,0.0529,0.0528,0.0527,0.042,0.0417,0.0414,0.0412,0.02,0.0194,0.0189,0.0208,0,0,0.017,0.0168,0,0,0,0,0,0,0,0,0.0569,0.0568,0.0547,0.0541,0.0534,0.048,0.0447,0.0413,0.0421,0.0461,0.0413,0.041,0.0281,0.0268,0.0263,0.0198,0.0189,0.017,0.0166,0.0164,0.0162,0,0,0,0,0,0,0,0.0571,0.057,0.0572,0.0546,0.0538,0.0495,0.0489,0.044,0.0385,0.0458,0.045,0.0443,0.0276,0.0269,0.0256,0.0186,0.017,0.0165,0.0161,0.0159,0.0066,0.0067,0,0,0,0,0,0,0.0587,0.0573,0.0574,0.0569,0.0545,0.0498,0.049,0.05,0.0388,0.037,0.0446,0.0439,0.0281,0.0264,0.0248,0.0231,0.0164,0.0158,0.0155,0.0065,0.0066,0.0068,0,0,0,0,0,0,0.0587,0.0589,0.0577,0.0568,0.0563,0.0501,0.0513,0.05,0.0474,0.0381,0.0359,0.043,0.0278,0.0257,0.0206,0.0222,0.0155,0.015,0.0064,0.0065,0.0067,0.0217,0,0,0,0,0,0,0.0588,0.059,0.0598,0.057,0.0565,0.0584,0.0515,0.0501,0.0476,0.0465,0.0361,0.0339,0.0274,0.0216,0.0201,0.0213,0.0145,0.0062,0.0064,0.0066,0.0211,0.0223,0.0235,0,0,0,0,0,0.0588,0.0617,0.06,0.0599,0.0581,0.0586,0.058,0.0524,0.0478,0.0486,0.0412,0.0341,0.0217,0.0213,0.0194,0.0205,0.0061,0.0064,0.0066,0.0205,0.0221,0.0234,0,0,0,0,0,0,0.0613,0.0609,0.0588,0.0612,0.0602,0.0567,0.0563,0.053,0.0482,0.0456,0.0362,0.0337,0.0297,0.0236,0.0233,0.0184,0.0126,0.0125,0.0238,0.0251,0.0263,0.0268,0.014,0,0,0,0,0,0.0628,0.0649,0.0634,0.0651,0.0647,0.0606,0.0596,0.0565,0.0521,0.0496,0.042,0.0344,0.0301,0.0263,0.0208,0.0188,0.0131,0.018,0.0192,0.0203,0.0194,0.0146,0.0153,0.0076,0.0076,0.0076,0,0,0.064,0.0641,0.0649,0.0658,0.0637,0.0654,0.0592,0.0586,0.0591,0.048,0.0445,0.0382,0.0305,0.0282,0.0258,0.0227,0.02,0.0206,0.0216,0.0201,0.0149,0.0157,0.0163,0.0078,0.0077,0.0077,0,0,0.0678,0.0677,0.0703,0.0708,0.0695,0.0682,0.0684,0.0647,0.0618,0.0596,0.0519,0.0477,0.039,0.0353,0.0323,0.037,0.0268,0.0338,0.0398,0.0353,0.0359,0.0363,0.0326,0.0326,0.0341,0.0342,0.0342,0,0.0678,0.0718,0.071,0.0738,0.0742,0.0701,0.0726,0.0714,0.0662,0.0645,0.0595,0.0493,0.0432,0.0418,0.0429,0.0399,0.0345,0.0355,0.037,0.0373,0.0375,0.0335,0.0333,0.0349,0.0348,0.0348,0.0347,0,0.074,0.0765,0.0781,0.0806,0.0821,0.0834,0.0826,0.0816,0.077,0.0744,0.0702,0.0628,0.0553,0.0546,0.0497,0.0486,0.0436,0.0397,0.0338,0.0392,0.0347,0.0342,0.036,0.0357,0.0355,0.0353,0,0,0.072,0.0806,0.0801,0.0825,0.0852,0.0864,0.0895,0.09,0.0898,0.0846,0.0833,0.0776,0.0703,0.0663,0.0598,0.057,0.0556,0.0486,0.048,0.0458,0.0447,0.042,0.0411,0.0506,0.0506,0.0505,0.0419,0,0.0744,0.0817,0.0859,0.0912,0.0938,0.0945,0.0975,0.098,0.0957,0.0936,0.0877,0.0825,0.0758,0.0704,0.0674,0.0582,0.0543,0.0582,0.0388,0.0382,0.0359,0.0405,0.0343,0.0261,0.0414,0.0413,0.0412,0,0.0759,0.081,0.0869,0.0952,0.0962,0.0982,0.1006,0.1031,0.1026,0.1004,0.0959,0.0894,0.0846,0.0769,0.0648,0.0665,0.0554,0.0491,0.0485,0.0396,0.0345,0.0225,0.0245,0.0403,0.0403,0.0404,0.0405,0,0.0708,0.0806,0.085,0.0874,0.0962,0.0968,0.0993,0.1014,0.1032,0.1011,0.1009,0.0944,0.0881,0.0768,0.0642,0.0618,0.0517,0.0465,0.0342,0.0339,0.0217,0.0204,0.0359,0.0359,0.0359,0.036,0.036,0,0.0705,0.0727,0.0813,0.0828,0.0861,0.0926,0.0943,0.0967,0.0999,0.1039,0.0998,0.1011,0.0867,0.0802,0.0673,0.0513,0.0529,0.0355,0.0315,0.0271,0.0264,0.0319,0.0316,0.0356,0.0357,0.0358,0.0358,0,0.0626,0.069,0.0732,0.0814,0.0828,0.0829,0.0902,0.094,0.0963,0.1013,0.1003,0.1025,0.0955,0.0837,0.0674,0.054,0.0404,0.0331,0.0301,0.026,0.0242,0.0247,0.017,0.0168,0.0166,0.0165,0.0164,0,0.0589,0.0604,0.0683,0.071,0.073,0.0757,0.08,0.0871,0.0939,0.1042,0.1084,0.1046,0.1066,0.0856,0.0596,0.037,0.0391,0.0165,0.0107,0.0253,0.0222,0.0229,0.0236,0.0007,0.0005,0.0003,0.0001,0,0.0515,0.0531,0.0584,0.0641,0.0676,0.076,0.0829,0.0891,0.1015,0.1097,0.1231,0.1258,0.1037,0.0801,0.0483,0.0329,0.0203,0.0119,0.0269,0.0078,0.0096,0.0067,0.0079,-0.0015,-0.0013,-0.0012,-0.0011,-0.001,0.0433,0.0457,0.0535,0.0591,0.0661,0.0789,0.0869,0.1009,0.1153,0.1297,0.1311,0.1315,0.0996,0.0556,0.0324,0.0062,0.0066,-0.0051,-0.0045,-0.0037,-0.0026,-0.0011,-0.0139,-0.0138,-0.0138,-0.0137,-0.0136,0,0.0366,0.0436,0.0498,0.0602,0.0707,0.0753,0.0932,0.1051,0.1264,0.1321,0.1399,0.1081,0.0806,0.0525,0.007,-0.0181,-0.0189,-0.0206,-0.019,-0.0176,-0.0162,-0.0156,-0.0305,-0.0305,-0.0305,-0.0305,0,0,0.0339,0.0405,0.0473,0.0629,0.0721,0.089,0.1017,0.1184,0.1274,0.1364,0.1309,0.1153,0.0804,0.0437,0.0107,-0.0088,-0.0054,-0.0113,0.0027,0.0094,0.0112,-0.009,-0.0067,0,0,0,0,0]}],[{"header":{"parameterUnit":"m.s-1","parameterCategory":2,"la1":30.2991,"la2":30.254,"lo1":-89.0895,"lo2":-89.0444,"dy":0.0017,"dx":0.0017,"nx":28,"ny":28,"refTime":"2025-08-01T21:00:00:Z","depth":"4","parameterNumber":2,"parameterNumberName":"U-component_of_CURRENTS"},"data":[0,0,0,0,0,0,0,0,0,0,0,0,0,0,0,0,0,0,0,0,0,0,0,0,0,0,0,0,0,0,0,0,0,0,0,0,0,0,0,0,0,0,0,0,0,0,0,0,0,0,0,0,0,0,0,0,0,0,0.0265,0.0266,0,0.0369,0.0371,0.0373,0.0463,0.0463,0.0464,0.0464,0.0504,0.0504,0.0505,0,0,0,0,0,0,0,0,0,0,0,0,0,0.0163,0.0165,0.0265,0.0266,0.0267,0.0369,0.0371,0.0373,0.0463,0.0463,0.0464,0.0465,0.0504,0.0504,0.0505,0,0,0,0,0,0,0,0,0,0,0,0,0,0.0237,0.0166,0.0265,0.0319,0.0325,0.0369,0.0371,0.0374,0.0463,0.0463,0.0464,0.0465,0.0503,0.0504,0.0505,0.0496,0,0,0.0508,0.0508,0,0,0,0,0,0,0,0,0.0233,0.0242,0.0311,0.0316,0.0322,0.0399,0.0349,0.0409,0.0463,0.0417,0.0464,0.0465,0.0458,0.0463,0.049,0.0498,0.05,0.0508,0.0508,0.0509,0.0509,0,0,0,0,0,0,0,0.0228,0.0238,0.0312,0.0311,0.0318,0.0345,0.0357,0.0362,0.0435,0.0421,0.0426,0.0428,0.0462,0.0489,0.0491,0.0501,0.0508,0.0509,0.0509,0.051,0.0538,0.0538,0,0,0,0,0,0,0.0201,0.0233,0.0309,0.0315,0.0271,0.0345,0.0359,0.0378,0.0437,0.0446,0.0427,0.0432,0.0487,0.049,0.0493,0.0539,0.0509,0.051,0.051,0.0538,0.0538,0.0538,0,0,0,0,0,0,0.0199,0.0208,0.0305,0.027,0.0284,0.0346,0.0367,0.038,0.045,0.0442,0.045,0.0489,0.0488,0.0492,0.0526,0.0539,0.051,0.0511,0.0538,0.0538,0.0538,0.0596,0,0,0,0,0,0,0.0196,0.0207,0.0242,0.0269,0.0284,0.0349,0.0366,0.0381,0.0444,0.0453,0.0496,0.0498,0.0489,0.0524,0.0527,0.0539,0.0512,0.0537,0.0538,0.0538,0.0593,0.0598,0.0602,0,0,0,0,0,0.0192,0.0222,0.0243,0.0254,0.0321,0.0349,0.0362,0.0411,0.0447,0.048,0.0508,0.0499,0.0527,0.0526,0.0528,0.0542,0.0537,0.0538,0.0538,0.0592,0.0597,0.0601,0,0,0,0,0,0,0.0197,0.0234,0.0258,0.03,0.0332,0.0363,0.0405,0.0437,0.0492,0.0518,0.0515,0.0519,0.0545,0.0537,0.0535,0.0547,0.0526,0.0527,0.0565,0.057,0.0574,0.0598,0.0512,0,0,0,0,0,0.0211,0.0251,0.0276,0.0317,0.0336,0.0384,0.0415,0.0449,0.0483,0.0513,0.054,0.0553,0.0542,0.0555,0.0552,0.0574,0.054,0.0577,0.0581,0.0585,0.0604,0.0541,0.0541,0.054,0.054,0.054,0,0,0.0224,0.025,0.0276,0.0322,0.036,0.04,0.0408,0.0468,0.0511,0.0503,0.0588,0.0576,0.055,0.0566,0.0576,0.0568,0.0569,0.0586,0.0589,0.0606,0.0542,0.0542,0.0542,0.054,0.054,0.054,0,0,0.0251,0.0297,0.0336,0.0367,0.0423,0.0446,0.047,0.0529,0.0571,0.0631,0.0618,0.0619,0.0648,0.0614,0.0597,0.0623,0.0589,0.0624,0.0673,0.0612,0.0612,0.0611,0.0575,0.057,0.063,0.063,0.063,0,0.0271,0.0326,0.0351,0.0393,0.043,0.047,0.0521,0.0559,0.0626,0.0645,0.0669,0.0675,0.0662,0.0631,0.0647,0.0632,0.0607,0.0658,0.0617,0.0616,0.0614,0.0577,0.0571,0.0633,0.0633,0.0632,0.0632,0,0.0314,0.0377,0.0403,0.0472,0.0509,0.0565,0.0601,0.0655,0.0711,0.0733,0.0754,0.0734,0.0734,0.0714,0.0701,0.0674,0.0663,0.0626,0.0607,0.0618,0.0578,0.0571,0.0637,0.0636,0.0635,0.0635,0,0,0.0316,0.0416,0.0435,0.0489,0.0567,0.06,0.0661,0.0708,0.0747,0.0796,0.0821,0.0805,0.0806,0.0787,0.075,0.0706,0.0674,0.0685,0.0681,0.0655,0.0565,0.0578,0.0571,0.0634,0.0633,0.0632,0.0544,0,0.0356,0.045,0.0488,0.0591,0.0646,0.0693,0.0738,0.0783,0.0821,0.0852,0.0819,0.0838,0.0826,0.0835,0.0788,0.0694,0.0659,0.0703,0.0555,0.0551,0.0564,0.0564,0.0629,0.0539,0.0537,0.0536,0.0535,0,0.0387,0.0454,0.0563,0.0661,0.0689,0.0758,0.0835,0.088,0.0898,0.0924,0.0927,0.091,0.087,0.0855,0.0727,0.0762,0.0693,0.0617,0.061,0.0602,0.0551,0.0523,0.0522,0.0523,0.0524,0.0525,0.0526,0,0.0379,0.0503,0.06,0.0642,0.0751,0.0816,0.0877,0.092,0.0946,0.0985,0.0993,0.095,0.0928,0.0835,0.0703,0.0731,0.053,0.0535,0.0476,0.0476,0.0465,0.0467,0.0449,0.0449,0.0449,0.0449,0.045,0,0.0395,0.0479,0.0625,0.0681,0.079,0.086,0.0948,0.0994,0.1028,0.1005,0.1048,0.0966,0.0925,0.0799,0.0698,0.0556,0.0524,0.0496,0.0454,0.0493,0.0498,0.0461,0.0463,0.0446,0.0447,0.0447,0.0448,0,0.0375,0.0471,0.0589,0.0741,0.0797,0.0884,0.1001,0.1025,0.1086,0.1052,0.1069,0.0994,0.0856,0.0775,0.0589,0.0551,0.0404,0.0353,0.0404,0.0363,0.041,0.0417,0.0344,0.0344,0.0344,0.0343,0.0343,0,0.0368,0.0439,0.0627,0.0697,0.0788,0.0916,0.0969,0.1057,0.1041,0.0985,0.0916,0.0848,0.0776,0.0547,0.0457,0.0342,0.0319,0.0297,0.0391,0.0434,0.0399,0.0406,0.0413,0.0343,0.0343,0.0343,0.0343,0,0.0357,0.0448,0.0536,0.0675,0.0781,0.0855,0.0926,0.0895,0.0909,0.0978,0.0809,0.0749,0.0597,0.0488,0.0435,0.0308,0.0353,0.0296,0.0298,0.0386,0.0431,0.0398,0.0405,0.0342,0.0342,0.0342,0.0342,0,0.0346,0.0398,0.0516,0.0616,0.0733,0.0736,0.0791,0.0767,0.0778,0.0744,0.0628,0.0541,0.0522,0.0454,0.0312,0.0307,0.034,0.0372,0.0371,0.0371,0.0423,0.0486,0.0383,0,0,0,0,0,0.0327,0.0352,0.0435,0.0521,0.062,0.0672,0.0714,0.0736,0.0719,0.0624,0.0663,0.0522,0.044,0.0348,0.0351,0.0291,0.0305,0.0292,0.0333,0.0337,0.0338,0.0397,0,0,0,0,0,0,0.0307,0.0389,0.0392,0.0405,0.0433,0.0507,0.0519,0.0516,0.0471,0.0485,0.0431,0.0531,0.0428,0.044,0.0343,0.0337,0.0368,0.0289,0.0289,0.0336,0.0337,0.0338,0.04,0,0,0,0,0]},{"header":{"parameterUnit":"m.s-1","parameterCategory":2,"la1":30.2991,"la2":30.254,"lo1":-89.0895,"lo2":-89.0444,"dy":0.0017,"dx":0.0017,"nx":28,"ny":28,"refTime":"2025-08-01T21:00:00:Z","depth":"4","parameterNumber":3,"parameterNumberName":"V-component_of_CURRENTS"},"data":[0,0,0,0,0,0,0,0,0,0,0,0,0,0,0,0,0,0,0,0,0,0,0,0,0,0,0,0,0,0,0,0,0,0,0,0,0,0,0,0,0,0,0,0,0,0,0,0,0,0,0,0,0,0,0,0,0,0,0.0137,0.0136,0,0.0045,0.0044,0.0042,0.0003,0.0004,0.0004,0.0005,-0.0116,-0.0119,-0.0123,0,0,0,0,0,0,0,0,0,0,0,0,0,0.0198,0.0198,0.0137,0.0136,0.0135,0.0045,0.0044,0.0042,0.0003,0.0004,0.0005,0.0005,-0.0115,-0.0119,-0.0123,0,0,0,0,0,0,0,0,0,0,0,0,0,0.0143,0.0198,0.0137,0.0107,0.0104,0.0045,0.0043,0.0042,0.0003,0.0004,0.0005,0.0005,-0.0113,-0.0119,-0.0124,-0.0172,0,0,-0.0141,-0.0143,0,0,0,0,0,0,0,0,0.0146,0.014,0.0113,0.0109,0.0106,0.0039,0.0021,-0.003,0.0003,0.0038,0.0005,0.0006,-0.0065,-0.0075,-0.0098,-0.0177,-0.0183,-0.0141,-0.0145,-0.0147,-0.0148,0,0,0,0,0,0,0,0.015,0.0144,0.0097,0.0112,0.0107,0.0071,0.0065,0.0011,-0.0019,0.0035,0.0033,0.0027,-0.0068,-0.0092,-0.0101,-0.0184,-0.0141,-0.0146,-0.0149,-0.0151,-0.0323,-0.0324,0,0,0,0,0,0,0.0171,0.0148,0.01,0.0095,0.0132,0.007,0.0062,0.0057,-0.0018,-0.0028,0.0027,0.0026,-0.0083,-0.0094,-0.0105,-0.0182,-0.0147,-0.0152,-0.0155,-0.0322,-0.0323,-0.0325,0,0,0,0,0,0,0.0173,0.0168,0.0104,0.0122,0.0111,0.0069,0.0063,0.0055,0.003,-0.0023,-0.0034,0.0011,-0.0083,-0.0097,-0.0168,-0.0186,-0.0154,-0.0159,-0.032,-0.0322,-0.0324,-0.0325,0,0,0,0,0,0,0.0175,0.0169,0.0174,0.0123,0.0111,0.0063,0.0062,0.0053,0.0027,0.0025,-0.0042,-0.0052,-0.0084,-0.016,-0.0174,-0.0193,-0.0164,-0.0319,-0.0321,-0.0323,-0.0323,-0.0326,-0.0329,0,0,0,0,0,0.0177,0.0172,0.0174,0.0169,0.0119,0.0063,0.0052,0.0023,0.0026,0.0004,-0.0043,-0.005,-0.0184,-0.0166,-0.0182,-0.0203,-0.0317,-0.032,-0.0323,-0.0322,-0.0326,-0.0329,0,0,0,0,0,0,0.0195,0.0167,0.0168,0.0155,0.0114,0.0057,0.0039,0.0021,-0.0033,-0.0035,-0.0078,-0.0094,-0.016,-0.0185,-0.0164,-0.0259,-0.0247,-0.0254,-0.0241,-0.0245,-0.0248,-0.0237,-0.0168,0,0,0,0,0,0.0205,0.0199,0.0159,0.0148,0.013,0.0087,0.0064,0.0039,-0.0012,-0.0034,-0.0079,-0.0129,-0.0186,-0.0216,-0.0269,-0.0328,-0.0334,-0.0349,-0.0352,-0.0354,-0.0356,-0.0391,-0.0397,-0.0334,-0.0334,-0.0334,0,0,0.0212,0.0194,0.0192,0.0152,0.0121,0.0078,0.0073,0.0031,-0.0009,-0.0041,-0.0108,-0.0147,-0.0205,-0.0271,-0.0301,-0.0293,-0.0372,-0.0358,-0.0359,-0.036,-0.0395,-0.0401,-0.0406,-0.0336,-0.0336,-0.0335,0,0,0.0203,0.0202,0.0187,0.0152,0.0107,0.0073,0.0063,0.0003,-0.0025,-0.0092,-0.0124,-0.0177,-0.0258,-0.0307,-0.034,-0.0394,-0.0389,-0.0401,-0.0409,-0.0443,-0.0448,-0.0453,-0.0449,-0.0453,-0.04,-0.04,-0.04,0,0.0213,0.019,0.017,0.0135,0.0107,0.0072,0.0033,-0.0011,-0.0088,-0.0114,-0.0112,-0.0235,-0.0278,-0.0364,-0.0377,-0.0401,-0.0401,-0.0388,-0.0445,-0.045,-0.0455,-0.045,-0.0455,-0.04,-0.04,-0.04,-0.04,0,0.0181,0.0164,0.0146,0.0098,0.0059,0.002,-0.0037,-0.0077,-0.0103,-0.0144,-0.0222,-0.0284,-0.0344,-0.0371,-0.0391,-0.0451,-0.0433,-0.0444,-0.043,-0.0461,-0.0454,-0.0459,-0.0401,-0.0401,-0.04,-0.04,0,0,0.0211,0.0141,0.014,0.0118,0.004,0.0008,-0.006,-0.0127,-0.0158,-0.0225,-0.0273,-0.0365,-0.0371,-0.0408,-0.0441,-0.0478,-0.0503,-0.0466,-0.0468,-0.0451,-0.0545,-0.05,-0.0501,-0.0517,-0.0519,-0.052,-0.0519,0,0.0197,0.0146,0.0104,0.0049,0.0017,-0.0038,-0.0091,-0.0156,-0.0207,-0.0263,-0.0327,-0.0372,-0.0394,-0.0399,-0.0451,-0.0503,-0.0518,-0.05,-0.0528,-0.0528,-0.0476,-0.0507,-0.0524,-0.0523,-0.0524,-0.0524,-0.0525,0,0.0185,0.0154,0.0117,0.0043,0.0026,0.0006,-0.0065,-0.0121,-0.0212,-0.0248,-0.0312,-0.036,-0.0434,-0.0427,-0.0526,-0.0508,-0.0514,-0.0546,-0.0547,-0.051,-0.0494,-0.0493,-0.0534,-0.0533,-0.0532,-0.0532,-0.0531,0,0.0234,0.0161,0.0146,0.0121,0.0036,0.0038,0.0007,-0.0081,-0.0116,-0.0198,-0.0229,-0.0343,-0.037,-0.0436,-0.0498,-0.0503,-0.0589,-0.0605,-0.0568,-0.0564,-0.0601,-0.0596,-0.0641,-0.0641,-0.0641,-0.0641,-0.0642,0,0.0234,0.0222,0.0198,0.0192,0.02,0.012,0.0122,0.0061,-0.0013,-0.0074,-0.0173,-0.0247,-0.037,-0.0447,-0.0497,-0.0546,-0.0578,-0.0572,-0.057,-0.0598,-0.0594,-0.0602,-0.0598,-0.0641,-0.0641,-0.0641,-0.0641,0,0.0282,0.0259,0.0252,0.0219,0.0237,0.0259,0.0247,0.0217,0.0146,0.0065,0.005,-0.0146,-0.0263,-0.0368,-0.0482,-0.052,-0.058,-0.0569,-0.0565,-0.0562,-0.053,-0.0526,-0.0553,-0.0552,-0.0551,-0.055,-0.0549,0,0.0289,0.0302,0.0324,0.037,0.0386,0.0422,0.043,0.0346,0.0278,0.0103,0.0036,-0.0083,-0.0212,-0.0338,-0.0455,-0.0529,-0.0529,-0.0536,-0.0569,-0.053,-0.0526,-0.0524,-0.0521,-0.0547,-0.0547,-0.0546,-0.0546,0,0.031,0.035,0.0349,0.0468,0.0523,0.0528,0.0517,0.0447,0.0285,0.0254,0.005,-0.0061,-0.0198,-0.0341,-0.0369,-0.0439,-0.0542,-0.0525,-0.0529,-0.0559,-0.0523,-0.052,-0.0518,-0.0542,-0.0543,-0.0543,-0.0543,0,0.0353,0.0383,0.0438,0.051,0.0625,0.0593,0.0541,0.0431,0.0354,0.0118,0.0064,-0.0101,-0.019,-0.0293,-0.0351,-0.0388,-0.0413,-0.0423,-0.0432,-0.0438,-0.0412,-0.035,-0.0317,0,0,0,0,0,0.0392,0.0415,0.0478,0.0521,0.0634,0.0697,0.0582,0.0474,0.0299,0.0184,0.0119,-0.0007,-0.0147,-0.0244,-0.027,-0.0346,-0.0428,-0.0379,-0.0445,-0.052,-0.0525,-0.0512,0,0,0,0,0,0,0.0414,0.0491,0.0461,0.0542,0.0618,0.0675,0.0614,0.0443,0.0334,0.0189,0.0111,0.008,-0.006,-0.0052,-0.0212,-0.0239,-0.0278,-0.0436,-0.0436,-0.0517,-0.0522,-0.0525,-0.0514,0,0,0,0,0]}]]